Location: Frydek-Mistek
(49.6830°N, 18.3330°E)
Time: 16:56:10
(UTC+02:00)

Courier 1B Rocket - Visible Passes

Search period start: 30 July 2016 00:00
Search period end: 09 August 2016 00:00
Orbit: 920 x 1202 km, 28.3° (Epoch: 29 July)

Date Brightness Start Highest point End Pass type
(mag) Time Alt. Az. Time Alt. Az. Time Alt. Az.
01 Aug 7.1 04:38:38 10° SSW 04:41:49 13° S 04:45:02 10° SSE visible
02 Aug 7.1 03:39:03 10° S 03:41:08 11° SSE 03:43:14 10° SSE visible
03 Aug 7.1 04:29:05 10° SSW 04:32:32 14° S 04:36:02 10° SSE visible
04 Aug 7.0 03:30:26 12° S 03:31:50 12° S 03:34:47 10° SSE visible
05 Aug 7.0 04:19:56 10° SSW 04:23:16 13° S 04:26:38 10° SSE visible
06 Aug 6.9 03:22:21 13° S 03:22:35 13° S 03:25:43 10° SSE visible
07 Aug 7.0 04:11:37 10° SSW 04:14:00 12° S 04:16:45 10° SSE visible
08 Aug 7.0 03:14:36 12° S 03:14:36 12° S 03:16:14 10° SSE visible
